Regional Weather Roundup
Issued by NWS

Home | Current Version | Previous Version | Graphics & Text | Print | Product List | Glossary Off
Versions: 1 2 3 4 5 6 7 8 9 10 11 12 13 14 15 16 17 18 19 20 21 22 23 24 25 26 27 28 29 30 31 32 33 34 35 36 37 38 39 40 41 42 43 44 45 46 47 48 49 50

000
ASUS43 KDMX 220106
RWRIA

WEATHER ROUNDUP FOR IOWA
NATIONAL WEATHER SERVICE DES MOINES IA
800 PM CDT SAT APR 21 2018

NOTE: "FAIR" INDICATES FEW OR NO CLOUDS BELOW 12,000 FEET WITH NO
SIGNIFICANT WEATHER AND/OR OBSTRUCTIONS TO VISIBILITY.

* - THESE STATIONS ARE NOT NWS STATIONS...THUS NOT UNDER NWS
QUALITY CONTROL.  THEY ALSO DO NOT REPORT WEATHER SUCH
AS PRECIPITATION OR FOG.

IAZ001>003-012>014-020>022-031>034-043>046-220200-
   NORTHWEST IOWA

CITY           SKY/WX    TMP DP  RH WIND       PRES   REMARKS
CARROLL *      CLOUDY    50  34  53 E5        30.27S
CHEROKEE *     CLOUDY    45  36  71 E10       30.30R
DENISON *      CLOUDY    50  32  50 NE9       30.27F
LE MARS *      CLOUDY    50  39  66 E9G15     30.27F
ORANGE CITY *  CLOUDY    48  39  71 E7        30.28F
SHELDON *      CLOUDY    46  37  71 E10       30.28S
SIOUX CITY     CLOUDY    51  37  58 E10       30.27R
SPENCER        CLOUDY    42  33  70 NE9       30.31S
STORM LAKE *   CLOUDY    45  39  81 NE10      30.29R
$$

IAZ055>058-069>071-079>083-090>094-220200-
   SOUTHWEST IOWA

CITY           SKY/WX    TMP DP  RH WIND       PRES   REMARKS
ATLANTIC *     MOCLDY    52  30  43 NE7       30.25R
AUDUBON *      CLOUDY    48  30  49 CALM      30.28R
CLARINDA *     PTCLDY    54  28  37 NE7       30.23F
COUNCIL BLFS * CLOUDY    52  36  54 NE13      30.24R
CRESTON *      CLOUDY    52  27  37 NE9       30.24R
HARLAN  *      CLOUDY    50  30  46 NE8       30.30R
LAMONI         CLOUDY    54  28  36 E7        30.21R
RED OAK *      CLOUDY    54  28  37 NE7       30.23S
SHENANDOAH *   CLOUDY    55  28  35 E8        30.22F
$$

IAZ047>049-059>061-072>074-084-220200-
   CENTRAL IOWA

CITY           SKY/WX    TMP DP  RH WIND       PRES   REMARKS
AMES           CLOUDY    54  29  38 E9        30.27S
ANKENY *       CLOUDY    55  27  33 E7        30.29R
BOONE *        CLOUDY    52  32  46 E9        30.27S
CHARITON *     CLOUDY    54  27  35 NE10      30.22F
DES MOINES     CLOUDY    56  24  29 E8        30.27R
GRINNELL*      CLOUDY    52  31  44 E14       30.30S
KNOXVILLE *    MOCLDY    55  25  30 E6        30.25S
MARSHALLTOWN   CLOUDY    53  33  46 E12       30.29R
NEWTON *       CLOUDY    54  30  40 E14       30.28S
PELLA *        CLOUDY    56  25  30 E9        30.28S
PERRY *        CLOUDY    50  23  34 E6        30.27R
$$

IAZ004>006-015-016-023>025-035-036-220200-
   NORTH CENTRAL IOWA

CITY           SKY/WX    TMP DP  RH WIND       PRES   REMARKS
ALGONA *       CLOUDY    43  36  75 NE8       30.32R
CLARION *      CLOUDY    50  43  76 NE10      30.31R
ESTHERVILLE    CLOUDY    38  33  82 N7        30.31S WCI  33
FORT DODGE *   CLOUDY    54  27  35 E5        30.30R
MASON CITY     CLOUDY    43  36  76 NE7       30.34R
FOREST CITY *  FAIR      45  34  65 E5        30.33R
WEBSTER CITY * CLOUDY    52  34  50 E7        30.27S
IOWA FALLS *   CLOUDY    54  36  51 E10       30.32R
$$

IAZ007>011-017>019-026>030-037>042-050>054-066-220200-
   NORTHEAST IOWA

CITY           SKY/WX    TMP DP  RH WIND       PRES   REMARKS
CEDAR RAPIDS   FAIR      53  33  46 NE14      30.30S
CHARLES CITY * FAIR      50  41  71 SE5       30.34R
CLINTON *      FAIR      50  35  56 E8        30.35R
DECORAH *      CLOUDY    52  34  50 CALM      30.33S
DUBUQUE        FAIR      50  33  52 E7        30.36R
MONTICELLO *   FAIR      52  36  54 NE5       30.35R
OELWEIN *      CLOUDY    52  36  54 E9        30.35R
WATERLOO       FAIR      52  35  52 E12       30.33R
$$

IAZ064-065-067-068-078-220200-
   EAST CENTRAL IOWA

CITY           SKY/WX    TMP DP  RH WIND       PRES   REMARKS
DAVENPORT      FAIR      52  32  46 E12       30.34S
IOWA CITY      CLOUDY    54  32  43 E10       30.32R
MT. PLEASANT * CLOUDY    54  27  35 E13       30.29R
MUSCATINE *    CLOUDY    55  27  33 E7        30.32R
QUAD CITIES    FAIR      55  32  41 E15       30.31S
$$

IAZ062-063-075>077-085>089-095>099-220200-
   SOUTHEAST IOWA

CITY           SKY/WX    TMP DP  RH WIND       PRES   REMARKS
BURLINGTON     CLOUDY    56  25  30 E9        30.28R
FAIRFIELD *    CLOUDY    55  28  35 E13       30.27R
FORT MADISON * CLOUDY    55  28  35 E12       30.29R
KEOKUK *         N/A     57  28  33 E14       30.26R
OSKALOOSA *    FAIR      54  26  34 NE13      30.28R
CENTERVILLE *    N/A     54  28  37 NE10      30.23F
OTTUMWA        CLOUDY    54  27  35 E8        30.27R
WASHINGTON *   CLOUDY    55  30  38 E13       30.30S
$$

ABBREVIATIONS USED IN REMARKS
   TC - TEMPERATURES IN CELSIUS
  WCI - WIND CHILL INDEX
   HX - HEAT INDEX
  VSB - VISIBILITY
$$





USA.gov is the U.S. government's official web portal to all federal, state and local government web resources and services.